User: anonymous   Login
Location: Unspecified
(0.0000°N, 0.0000°E)
Time: 07:54:03
(UTC+00:00)
Language:

COROT - Orbit

View from above orbital plane
View from above orbital plane
View from above satellite
View from above satellite

Ground track
Ground track

The orbit data is extracted from the following two-line orbital elements,

1 29678U 06063A   22021.92609450  .00000294  00000-0  62921-4 0  9998
2 29678  90.0477  23.1210 0200531 188.2226 171.5679 14.44614204782519
Epoch (UTC): 21 January 2022 22:13:34
Eccentricity: 0.0200531
inclination: 90.0477°
perigee height: 600 km
apogee height: 886 km
right ascension of ascending node: 23.1210°
argument of perigee: 188.2226°
revolutions per day: 14.44614204
mean anomaly at epoch: 171.5679°
orbit number at epoch: 78251

The dashed part of the orbit path shows where the satellite is in the earth's shadow,  

DLR